Regional Weather Roundup
Issued by NWS Albany, NY

Home | Current Version | Previous Version | Graphics & Text | Print | Product List | Glossary Off
Versions: 1 2 3 4 5 6 7 8 9 10 11 12 13 14 15 16 17 18 19 20 21 22 23 24 25 26 27 28 29 30 31 32 33 34 35 36 37 38 39 40 41 42 43 44 45 46 47 48 49 50

380
ASUS41 KALY 301410
RWRALY

NEW YORK STATE HOURLY WEATHER ROUNDUP
NATIONAL WEATHER SERVICE ALBANY NY
1000 AM EDT MON MAY 30 2016

NOTE: "FAIR" INDICATES FEW OR NO CLOUDS BELOW 12,000 FEET WITH NO
SIGNIFICANT WEATHER AND/OR NO OBSTRUCTIONS TO VISIBILITY.

NYZ032-033-038>043-046>054-057>066-NYZ062>081-082-084-301500-
EAST


CITY           SKY/WX    TMP DP  RH WIND       PRES   REMARKS
ALBANY         MOSUNNY   70  63  78 S12       29.97F
GLENS FALLS    MOSUNNY   72  63  73 S10       29.95F
POUGHKEEPSIE   CLOUDY    70  65  84 S6        29.99S
NEWBURGH       PTSUNNY   68  66  94 W6        30.02S
MONTGOMERY     CLOUDY    69  65  86 SW7       30.01S
WHITE PLAINS   CLOUDY    68  66  93 NW3       30.00F FOG
ISLIP          LGT RAIN  69  68  96 SW8       30.00F FOG
NEW YORK CITY  CLOUDY    69  68  96 NW5       30.00S
CENTRAL PARK   CLOUDY    69  66  90 VRB3      30.04S
$$

NYZ005>009-017-018-044>046-055-056-301500-
CENTRAL


CITY           SKY/WX    TMP DP  RH WIND       PRES   REMARKS
FULTON         SUNNY     78  64  61 W9        29.93F
SYRACUSE       MOSUNNY   76  61  59 SW16      29.92F
ROME           SUNNY     75  64  68 VRB6      29.95F
ELMIRA         SUNNY     75  61  61 SW7       29.97F
BINGHAMTON     SUNNY     70  60  70 SW8       30.01F
MONTICELLO     CLOUDY    66  64  94 W3        30.05F
$$

NYZ026>034-041>043-087-301500-
NORTH


CITY           SKY/WX    TMP DP  RH WIND       PRES   REMARKS
WATERTOWN      SUNNY     74  59  59 W14G24    29.91S
FORT DRUM      NOT AVBL
MASSENA        SUNNY     77  61  57 SW17G24   29.86F
SARANAC LAKE   SUNNY     71  60  68 SW17G23   29.92F
PLATTSBURGH    MOSUNNY   71  67  87 SE13      29.88F
$$

NYZ001>004-010>016-019>021-085-301500-
WEST


CITY           SKY/WX    TMP DP  RH WIND       PRES   REMARKS
NIAGARA FALLS  MOSUNNY   76  60  57 SW9       29.96R
BUFFALO        MOSUNNY   72  61  68 SW12      29.97S
DUNKIRK        LGT RAIN  74  60  61 SW9       29.99S
JAMESTOWN      SUNNY     70  57  64 W6        30.03S
WELLSVILLE     MOSUNNY   70  62  76 W9        30.04F
ROCHESTER      MOSUNNY   75  62  64 W10       29.95S
PENN YAN       SUNNY     74  61  63 SW8       29.97F
$$

             KEY
       WCI = WIND CHILL INDEX
       VSB = VISIBILITY
       HX  = HEAT INDEX
$$




USA.gov is the U.S. government's official web portal to all federal, state and local government web resources and services.